Location: Bacharowice
(49.9333°N, 19.5833°E)
Time: 22:01:53
(UTC+00:00)

Cosmos 1125 Rocket - Pass Details

Date: 11 May 2021
Orbit: 758 x 779 km, 74.0° (Epoch: 21 June)

Event Time Altitude Azimuth Distance (km) Brightness Sun altitude
Exits shadow 23:26:53 38° 234° (SW) 1,157 4.0 -21.1°
Maximum altitude 23:28:45 61° 297° (WNW) 864 3.7 -21.0°
Drops below altitude 10° 23:33:55 10° 19° (NNE) 2,303 7.2 -20.8°
Sets 23:36:20 0° 22° (NNE) 3,231 8.3 -20.7°
